User: anonymous   Login
Location: Newark
(36.1358°N, 115.1208°W)
Time: 16:21:31
(UTC+00:00)
Language:

ISS - Orbit

View from above orbital plane
View from above orbital plane
View from above satellite
View from above satellite

Ground track
Ground track

The orbit data is extracted from the following two-line orbital elements,

1 25544U 98067A   21334.26436330  .00005004  00000-0  99898-4 0  9996
2 25544  51.6438 241.5382 0004274 259.9657 242.7293 15.48711525314336
Epoch (UTC): 30 November 2021 06:20:40
Eccentricity: 0.0004274
inclination: 51.6438°
perigee height: 417 km
apogee height: 423 km
right ascension of ascending node: 241.5382°
argument of perigee: 259.9657°
revolutions per day: 15.48711525
mean anomaly at epoch: 242.7293°
orbit number at epoch: 31433

The dashed part of the orbit path shows where the satellite is in the earth's shadow,  

DLR